カタログに戻る

FENGYUN 1C DEB

運用中SSO
NORAD 38801·DEBRIS·🇨🇳 China

打ち上げ May 10, 1999 から Taiyuan Satellite Launch Center

Loading…

次のパス (今後24時間)

TLE

経年Source: Space-Track

元期: Sep 6, 2026, 22:30 UTC

1 38801U 99025EUR 26249.93784931  .00000731  00000-0  17835-3 0  9990
2 38801  98.3404 293.5579 0341967 282.3625 202.4949 14.26004972681817

AllMySatでFENGYUN 1C DEBをリアルタイム追跡

Download on the App Store